K8MUD Weather Reports


time (UTC)temp
F
wind
direction
speed
knots
gust
knots
rain 1hr
in
rain 24hr
in
rain mn
in
humidity
%
barometer
mb
20260503194001 66 220 6.1 19.1 0.00 0.00 0.00 39 1009.0
20260503193900 65 219 7.0 19.1 0.00 0.00 0.00 37 1009.0
20260503193522 66 218 7.0 19.1 0.00 0.00 0.00 37 1009.2
20260503193400 66 219 6.1 19.1 0.00 0.00 0.00 37 1009.3
20260503193002 66 232 6.1 18.2 0.00 0.00 0.00 38 1009.0
20260503192900 66 240 6.1 13.9 0.00 0.00 0.00 39 1009.0
20260503192502 65 247 7.0 14.8 0.00 0.00 0.00 41 1009.1
20260503192400 65 244 7.8 14.8 0.00 0.00 0.00 40 1009.1
20260503192001 64 245 8.7 18.2 0.00 0.00 0.00 40 1009.3
20260503191900 64 242 9.6 18.2 0.00 0.00 0.00 40 1009.3
20260503191501 64 239 9.6 21.7 0.00 0.00 0.00 39 1009.4
20260503191400 64 242 9.6 21.7 0.00 0.00 0.00 40 1009.4
20260503191002 64 234 8.7 21.7 0.00 0.00 0.00 38 1009.5
20260503190900 65 233 8.7 21.7 0.00 0.00 0.00 37 1009.6
20260503190502 65 230 8.7 18.2 0.00 0.00 0.00 38 1009.5
20260503190400 65 227 8.7 18.2 0.00 0.00 0.00 38 1009.5
20260503190001 66 223 7.0 13.0 0.00 0.00 0.00 37 1009.8
20260503185900 66 226 7.0 14.8 0.00 0.00 0.00 37 1009.8
20260503185503 66 223 7.0 19.1 0.00 0.00 0.00 37 1010.0
20260503185400 67 224 7.0 19.1 0.00 0.00 0.00 38 1010.0
20260503185002 67 225 7.0 19.1 0.00 0.00 0.00 38 1010.0
20260503184900 67 227 7.8 19.1 0.00 0.00 0.00 37 1010.0
20260503184502 66 231 7.8 16.5 0.00 0.00 0.00 37 1010.0
20260503184400 66 233 7.8 16.5 0.00 0.00 0.00 37 1010.0
20260503184002 66 240 7.8 20.9 0.00 0.00 0.00 39 1010.0
20260503183900 65 236 7.0 20.9 0.00 0.00 0.00 40 1010.0
20260503183502 65 231 7.8 20.9 0.00 0.00 0.00 39 1010.0
20260503183400 65 231 7.0 20.9 0.00 0.00 0.00 38 1010.1
20260503183002 64 222 7.0 15.6 0.00 0.00 0.00 39 1010.2
20260503182900 64 222 7.0 14.8 0.00 0.00 0.00 39 1010.2
20260503182501 64 227 7.0 15.6 0.00 0.00 0.00 39 1010.3
20260503182400 64 228 7.0 15.6 0.00 0.00 0.00 39 1010.2
20260503182002 64 232 7.0 20.0 0.00 0.00 0.00 38 1010.4
20260503181900 64 231 7.0 20.0 0.00 0.00 0.00 38 1010.5
20260503181503 64 230 7.8 20.0 0.00 0.00 0.00 38 1010.5
20260503181359 64 228 7.8 20.0 0.00 0.00 0.00 38 1010.4
20260503181002 65 226 7.8 19.1 0.00 0.00 0.00 37 1010.5
20260503180859 65 224 8.7 19.1 0.00 0.00 0.00 38 1010.4
20260503180522 65 223 7.8 19.1 0.00 0.00 0.00 37 1010.4
20260503180359 65 222 7.8 19.1 0.00 0.00 0.00 37 1010.4
20260503180001 65 228 7.8 19.1 0.00 0.00 0.00 37 1010.4
20260503175859 65 231 7.0 18.2 0.00 0.00 0.00 38 1010.5
20260503175523 64 227 7.0 18.2 0.00 0.00 0.00 38 1010.5
20260503175359 64 224 7.0 18.2 0.00 0.00 0.00 37 1010.6
20260503175002 64 211 7.0 15.6 0.00 0.00 0.00 38 1010.8
20260503174859 64 209 6.1 15.6 0.00 0.00 0.00 38 1010.6
20260503174522 64 216 6.1 14.8 0.00 0.00 0.00 37 1010.7
20260503174359 64 221 5.2 14.8 0.00 0.00 0.00 38 1010.8
20260503174023 65 232 5.2 12.2 0.00 0.00 0.00 37 1010.8
20260503173859 65 238 6.1 12.2 0.00 0.00 0.00 38 1010.8
20260503173502 65 238 7.0 14.8 0.00 0.00 0.00 38 1010.8
20260503173359 65 242 7.8 15.6 0.00 0.00 0.00 39 1010.8
20260503173002 64 248 7.8 15.6 0.00 0.00 0.00 39 1011.0
20260503172859 64 248 8.7 15.6 0.00 0.00 0.00 39 1011.0
20260503172502 64 252 8.7 20.0 0.00 0.00 0.00 39 1011.0
20260503172359 64 255 8.7 20.0 0.00 0.00 0.00 38 1011.0
20260503172023 63 247 7.8 20.0 0.00 0.00 0.00 39 1011.1
20260503171859 63 248 7.0 20.0 0.00 0.00 0.00 39 1011.1
20260503171501 63 243 7.0 19.1 0.00 0.00 0.00 39 1011.1
20260503171359 63 242 7.8 16.5 0.00 0.00 0.00 40 1011.2
20260503171023 63 250 8.7 17.4 0.00 0.00 0.00 39 1011.1
20260503170859 63 247 8.7 17.4 0.00 0.00 0.00 38 1011.2
20260503170502 63 243 8.7 17.4 0.00 0.00 0.00 39 1011.3
20260503170359 63 241 8.7 17.4 0.00 0.00 0.00 39 1011.4
20260503150857 60 252 7.8 18.2 0.00 0.00 0.00 43 1012.1
20260503150502 59 252 7.0 18.2 0.00 0.00 0.00 44 1012.1
20260503150357 59 255 7.0 18.2 0.00 0.00 0.00 44 1012.1
20260503131355 50 229 5.2 11.3 0.00 0.00 0.00 53 1012.7
20260503131002 50 233 5.2 12.2 0.00 0.00 0.00 52 1012.7
20260503130855 50 237 5.2 12.2 0.00 0.00 0.00 52 1012.7
20260503130523 50 240 5.2 12.2 0.00 0.00 0.00 53 1012.7
20260503130355 50 240 6.1 12.2 0.00 0.00 0.00 53 1012.6
20260503110503 38 223 1.7 4.3 0.00 0.00 0.00 68 1013.2
20260503110353 38 224 1.7 4.3 0.00 0.00 0.00 68 1013.3
20260503090503 40 250 2.6 6.1 0.00 0.00 0.00 66 1013.9
20260503090351 40 253 2.6 6.1 0.00 0.00 0.00 66 1014.0
20260503081502 40 255 2.6 7.0 0.00 0.00 0.00 65 1014.1
20260503081350 40 254 2.6 7.0 0.00 0.00 0.00 66 1014.1
20260503081023 40 255 2.6 7.0 0.00 0.00 0.00 67 1014.1
20260503080850 40 257 2.6 7.0 0.00 0.00 0.00 68 1014.1
20260503080503 40 259 2.6 6.1 0.00 0.00 0.00 71 1014.1
20260503080350 40 264 2.6 6.1 0.00 0.00 0.00 74 1014.2
20260503072850 40 246 1.7 6.1 0.00 0.00 0.00 68 1014.3
20260503072523 40 255 1.7 6.1 0.00 0.00 0.00 68 1014.2
20260503072350 40 257 1.7 6.1 0.00 0.00 0.00 69 1014.3
20260503072003 40 253 1.7 6.1 0.00 0.00 0.00 71 1014.3
20260503071850 40 250 1.7 4.3 0.00 0.00 0.00 71 1014.2
20260503071503 40 249 1.7 4.3 0.00 0.00 0.00 70 1014.2
20260503071349 40 248 1.7 4.3 0.00 0.00 0.00 71 1014.2
20260503071023 39 248 1.7 3.5 0.00 0.00 0.00 69 1014.2
20260503070849 39 248 1.7 3.5 0.00 0.00 0.00 67 1014.2
20260503070503 39 248 1.7 3.5 0.00 0.00 0.00 66 1014.2
20260503070349 39 248 1.7 3.5 0.00 0.00 0.00 66 1014.3
20260503055003 40 279 1.7 4.3 0.00 0.00 0.00 65 1014.8
20260503054848 40 286 1.7 4.3 0.00 0.00 0.00 66 1014.7
20260503054503 40 289 1.7 3.5 0.00 0.00 0.00 65 1014.9
20260503054348 40 289 1.7 3.5 0.00 0.00 0.00 65 1014.8
20260503054003 40 290 1.7 3.5 0.00 0.00 0.00 65 1014.8
20260503053848 40 290 1.7 3.5 0.00 0.00 0.00 65 1014.9
20260503053503 40 290 1.7 3.5 0.00 0.00 0.00 66 1014.9
20260503053348 40 290 1.7 3.5 0.00 0.00 0.00 66 1014.9
20260503053003 39 290 1.7 3.5 0.00 0.00 0.00 66 1014.8
20260503052848 39 290 1.7 3.5 0.00 0.00 0.00 66 1014.8
20260503052502 39 290 1.7 2.6 0.00 0.00 0.00 66 1014.8
20260503052348 39 290 1.7 2.6 0.00 0.00 0.00 66 1015.0
20260503052003 39 290 1.7 2.6 0.00 0.00 0.00 67 1014.9
20260503051848 39 290 1.7 2.6 0.00 0.00 0.00 66 1014.9
20260503051503 39 290 1.7 2.6 0.00 0.00 0.00 67 1015.0
20260503051348 39 290 0.9 2.6 0.00 0.00 0.00 67 1015.1
20260503051003 39 290 0.9 2.6 0.00 0.00 0.00 67 1015.1
20260503050848 39 290 0.9 2.6 0.00 0.00 0.00 67 1015.0
20260503050524 39 290 0.9 2.6 0.00 0.00 0.00 67 1015.0
20260503050348 39 290 0.9 2.6 0.00 0.00 0.00 66 1015.0
20260503050005 39 290 1.7 2.6 0.00 0.00 0.00 66 1015.0
20260503045848 39 290 0.9 2.6 0.00 0.00 0.00 66 1015.0
20260503045503 39 290 0.9 2.6 0.00 0.00 0.00 66 1015.0
20260503045347 39 290 0.9 3.5 0.00 0.00 0.00 66 1015.0
20260503045024 39 290 0.9 3.5 0.00 0.00 0.00 66 1015.1
20260503044847 39 290 1.7 3.5 0.00 0.00 0.00 66 1015.1
20260503044503 39 290 0.9 3.5 0.00 0.00 0.00 66 1015.1
20260503044347 39 290 0.9 3.5 0.00 0.00 0.00 67 1015.0
20260503044003 39 290 0.0 3.5 0.00 0.00 0.00 67 1015.0
20260503043847 39 0 0.0 0.0 0.00 0.00 0.00 67 1015.0
20260503043503 39 290 0.0 1.7 0.00 0.00 0.00 67 1015.1
20260503043347 39 290 0.9 1.7 0.00 0.00 0.00 67 1015.1
20260503043004 39 290 0.9 1.7 0.00 0.00 0.00 67 1015.1
20260503042847 39 290 0.9 1.7 0.00 0.00 0.00 66 1015.1
20260503042525 39 290 0.9 1.7 0.00 0.00 0.00 66 1015.1
20260503042347 39 290 0.9 1.7 0.00 0.00 0.00 66 1015.2
20260503042003 39 290 0.9 1.7 0.00 0.00 0.00 66 1015.1
20260503041847 40 290 0.9 1.7 0.00 0.00 0.00 66 1015.1
20260503041502 40 290 0.9 1.7 0.00 0.00 0.00 65 1015.2
20260503041347 40 290 0.9 3.5 0.00 0.00 0.00 65 1015.2
20260503041003 40 290 0.9 3.5 0.00 0.00 0.00 65 1015.2
20260503040847 40 290 0.9 3.5 0.00 0.00 0.00 65 1015.2
20260503040503 40 290 0.9 3.5 0.00 0.00 0.00 65 1015.2
20260503040347 40 290 0.9 3.5 0.00 0.00 0.00 65 1015.2
20260503040003 40 291 0.9 3.5 0.00 0.00 0.00 65 1015.2
20260503035847 40 291 0.9 3.5 0.00 0.00 0.00 65 1015.2
20260503035524 40 291 1.7 3.5 0.00 0.00 0.00 65 1015.2
20260503035347 40 292 0.9 2.6 0.00 0.00 0.00 65 1015.3
20260503035004 40 292 0.9 2.6 0.00 0.00 0.00 66 1015.3
20260503034846 40 292 0.9 2.6 0.00 0.00 0.00 65 1015.2
20260503034503 40 292 0.0 2.6 0.00 0.00 0.00 66 1015.3
20260503034346 40 0 0.0 0.0 0.00 0.00 0.00 66 1015.2
20260503034003 40 0 0.0 0.0 0.00 0.00 0.00 66 1015.3
20260503033846 40 292 0.0 0.9 0.00 0.00 0.00 66 1015.3
20260503033504 40 292 0.9 2.6 0.00 0.00 0.00 66 1015.3
20260503033346 40 292 0.9 2.6 0.00 0.00 0.00 65 1015.3
20260503033003 40 292 0.9 2.6 0.00 0.00 0.00 65 1015.3
20260503032846 40 292 1.7 2.6 0.00 0.00 0.00 65 1015.4
20260503032504 40 292 1.7 2.6 0.00 0.00 0.00 65 1015.4
20260503032346 40 292 1.7 2.6 0.00 0.00 0.00 65 1015.3
20260503032003 40 292 1.7 2.6 0.00 0.00 0.00 65 1015.4
20260503031846 40 292 0.9 2.6 0.00 0.00 0.00 65 1015.4
20260503031504 39 292 0.9 2.6 0.00 0.00 0.00 66 1015.4
20260503031346 39 292 0.9 2.6 0.00 0.00 0.00 66 1015.4
20260503031003 39 292 0.9 2.6 0.00 0.00 0.00 66 1015.3
20260503030846 39 292 0.9 2.6 0.00 0.00 0.00 66 1015.4
20260503030503 39 292 0.9 2.6 0.00 0.00 0.00 66 1015.4
20260503030346 39 292 0.9 2.6 0.00 0.00 0.00 66 1015.5
20260503030004 39 292 0.9 2.6 0.00 0.00 0.00 66 1015.4
20260503025846 39 292 0.9 2.6 0.00 0.00 0.00 66 1015.5
20260503025503 39 292 0.9 1.7 0.00 0.00 0.00 66 1015.5
20260503025346 39 292 0.9 1.7 0.00 0.00 0.00 66 1015.5
20260503025003 39 292 0.9 1.7 0.00 0.00 0.00 66 1015.5
20260503024846 39 292 0.9 1.7 0.00 0.00 0.00 66 1015.5
20260503024503 39 292 0.9 1.7 0.00 0.00 0.00 66 1015.6
20260503024346 39 292 0.0 1.7 0.00 0.00 0.00 66 1015.6
20260503024003 39 292 0.0 0.9 0.00 0.00 0.00 66 1015.6
20260503023845 40 292 0.0 0.9 0.00 0.00 0.00 66 1015.7
20260503023503 40 292 0.0 0.9 0.00 0.00 0.00 65 1015.7
20260503023345 40 292 0.0 0.9 0.00 0.00 0.00 65 1015.6
20260503023003 40 0 0.0 0.0 0.00 0.00 0.00 65 1015.8
20260503022845 40 0 0.0 0.0 0.00 0.00 0.00 65 1015.7
20260503022503 40 0 0.0 0.0 0.00 0.00 0.00 64 1015.7
20260503022345 40 0 0.0 0.0 0.00 0.00 0.00 64 1015.8
20260503022003 40 0 0.0 0.0 0.00 0.00 0.00 64 1015.8
20260503021845 40 0 0.0 0.0 0.00 0.00 0.00 63 1015.7
20260503021503 40 0 0.0 0.0 0.00 0.00 0.00 63 1015.7
20260503021345 40 0 0.0 0.0 0.00 0.00 0.00 63 1015.7
20260503021003 40 0 0.0 0.0 0.00 0.00 0.00 62 1015.8
20260503020845 41 0 0.0 0.0 0.00 0.00 0.00 62 1015.7
20260503020503 41 0 0.0 0.0 0.00 0.00 0.00 62 1015.7
20260503020345 41 0 0.0 0.0 0.00 0.00 0.00 62 1015.7
20260503020004 41 0 0.0 0.0 0.00 0.00 0.00 61 1015.7
20260503015845 41 0 0.0 0.0 0.00 0.00 0.00 61 1015.7
20260503015524 41 0 0.0 0.0 0.00 0.00 0.00 61 1015.6
20260503015345 42 0 0.0 0.0 0.00 0.00 0.00 61 1015.6
20260503015003 42 0 0.0 0.0 0.00 0.00 0.00 60 1015.7
20260503014845 42 0 0.0 0.0 0.00 0.00 0.00 60 1015.7
20260503014525 42 0 0.0 0.0 0.00 0.00 0.00 59 1015.7
20260503014345 42 0 0.0 0.0 0.00 0.00 0.00 59 1015.6
20260503014003 42 0 0.0 0.0 0.00 0.00 0.00 59 1015.6
20260503013845 42 0 0.0 0.0 0.00 0.00 0.00 59 1015.6
20260503013524 42 0 0.0 0.0 0.00 0.00 0.00 58 1015.6
20260503013345 43 292 0.0 0.9 0.00 0.00 0.00 57 1015.6
20260503013004 43 292 0.0 0.9 0.00 0.00 0.00 57 1015.5
20260503012844 43 292 0.0 0.9 0.00 0.00 0.00 57 1015.6
20260503012503 43 292 0.0 0.9 0.00 0.00 0.00 57 1015.5
20260503012344 43 292 0.0 0.9 0.00 0.00 0.00 56 1015.5
20260503012024 44 0 0.0 0.0 0.00 0.00 0.00 56 1015.5
20260503011844 44 0 0.0 0.0 0.00 0.00 0.00 56 1015.5
20260503011503 44 0 0.0 0.0 0.00 0.00 0.00 54 1015.5
20260503011344 44 0 0.0 0.0 0.00 0.00 0.00 54 1015.5
20260503011004 44 0 0.0 0.0 0.00 0.00 0.00 53 1015.5
20260503010844 44 0 0.0 0.0 0.00 0.00 0.00 53 1015.5
20260503010504 45 0 0.0 0.0 0.00 0.00 0.00 52 1015.5
20260503010344 45 0 0.0 0.0 0.00 0.00 0.00 51 1015.5
20260503010003 45 0 0.0 0.0 0.00 0.00 0.00 51 1015.5
20260503005844 45 0 0.0 0.0 0.00 0.00 0.00 51 1015.5
20260503005503 46 0 0.0 0.0 0.00 0.00 0.00 50 1015.4
20260503005344 46 0 0.0 0.0 0.00 0.00 0.00 50 1015.4
20260503005004 46 0 0.0 0.0 0.00 0.00 0.00 50 1015.4
20260503004844 46 0 0.0 0.0 0.00 0.00 0.00 49 1015.4
20260503004503 46 292 0.0 1.7 0.00 0.00 0.00 49 1015.4
20260503004344 47 292 0.0 1.7 0.00 0.00 0.00 49 1015.4
20260503004003 47 292 0.0 1.7 0.00 0.00 0.00 48 1015.4
20260503003844 47 292 0.0 1.7 0.00 0.00 0.00 48 1015.4
20260503003500 47 292 0.0 1.7 0.00 0.00 0.00 48 1015.4
20260503003314 48 292 0.9 1.7 0.00 0.00 0.00 48 1015.4
20260503003022 48 292 0.9 3.5 0.00 0.00 0.00 48 1015.4
20260503002814 48 282 2.6 7.0 0.00 0.00 0.00 47 1015.4
20260503002522 48 288 2.6 7.0 0.00 0.00 0.00 47 1015.4
20260503002313 48 290 3.5 7.0 0.00 0.01 0.00 47 1015.4
20260503002001 48 291 2.6 7.0 0.00 0.01 0.00 47 1015.3
20260503001813 48 303 2.6 7.0 0.00 0.01 0.00 46 1015.3
20260503001502 48 304 2.6 6.1 0.00 0.01 0.00 46 1015.3
20260503001313 48 307 2.6 6.1 0.00 0.01 0.00 47 1015.3
20260503001001 48 307 2.6 5.2 0.00 0.01 0.00 46 1015.3
20260503000813 48 300 2.6 5.2 0.00 0.01 0.00 46 1015.3
20260503000522 48 288 2.6 6.1 0.00 0.01 0.00 46 1015.4
20260503000313 49 282 3.5 6.1 0.00 0.01 0.00 45 1015.3
20260503000001 49 280 3.5 6.1 0.00 0.01 0.00 47 1015.3
20260502235813 49 283 3.5 6.1 0.00 0.01 0.00 47 1015.5
20260502235501 49 288 2.6 6.1 0.00 0.01 0.00 47 1015.4
20260502235313 49 285 2.6 6.1 0.00 0.01 0.00 47 1015.4
20260502235022 49 284 2.6 6.1 0.00 0.01 0.00 47 1015.3
20260502234813 49 282 2.6 6.1 0.00 0.01 0.00 47 1015.4
20260502234501 49 284 2.6 7.0 0.00 0.01 0.00 48 1015.3
20260502234313 49 285 2.6 7.8 0.00 0.01 0.00 49 1015.4
20260502234001 49 282 3.5 7.8 0.00 0.01 0.00 52 1015.4
20260502233813 49 282 3.5 7.8 0.00 0.01 0.00 50 1015.5
20260502233501 49 285 3.5 8.7 0.00 0.01 0.00 48 1015.4
20260502233313 49 288 4.3 8.7 0.00 0.01 0.00 48 1015.5
20260502233001 49 295 4.3 8.7 0.00 0.01 0.00 47 1015.4
20260502232813 49 300 4.3 8.7 0.00 0.01 0.00 47 1015.5
20260502232501 48 302 4.3 8.7 0.00 0.01 0.00 47 1015.5
20260502232312 49 303 3.5 8.7 0.00 0.01 0.00 48 1015.5
20260502232001 49 306 3.5 7.0 0.00 0.01 0.00 47 1015.4
20260502231812 49 303 3.5 7.0 0.00 0.01 0.00 45 1015.4
20260502231522 49 302 4.3 7.0 0.00 0.01 0.00 46 1015.4
20260502231312 49 303 4.3 7.0 0.00 0.01 0.00 45 1015.4
20260502231001 49 289 4.3 8.7 0.00 0.01 0.00 46 1015.4
20260502230812 49 282 5.2 9.6 0.00 0.01 0.00 46 1015.4
20260502230522 49 276 5.2 10.4 0.00 0.01 0.00 46 1015.4
20260502230312 49 276 5.2 10.4 0.00 0.01 0.00 48 1015.5
20260502230002 49 281 4.3 10.4 0.00 0.01 0.00 49 1015.4
20260502225812 49 286 2.6 10.4 0.00 0.01 0.00 49 1015.5
20260502225523 49 291 2.6 7.8 0.00 0.01 0.00 48 1015.4
20260502225312 49 286 2.6 5.2 0.00 0.01 0.00 48 1015.5
20260502225022 49 296 2.6 6.1 0.00 0.01 0.00 52 1015.5
20260502224812 49 305 3.5 7.0 0.00 0.01 0.00 48 1015.4
20260502224502 49 308 3.5 7.0 0.00 0.01 0.00 51 1015.6
20260502224312 49 307 3.5 7.0 0.00 0.01 0.00 46 1015.5
20260502224002 49 297 3.5 7.0 0.00 0.01 0.00 47 1015.5
20260502223812 49 287 3.5 7.0 0.00 0.01 0.00 48 1015.5
20260502223501 49 283 3.5 8.7 0.00 0.01 0.00 48 1015.5
20260502223312 49 277 4.3 8.7 0.00 0.01 0.00 48 1015.6
20260502223001 49 270 4.3 8.7 0.00 0.01 0.00 48 1015.5
20260502222812 49 274 4.3 8.7 0.00 0.01 0.00 48 1015.5
20260502222501 49 276 4.3 7.8 0.00 0.01 0.00 48 1015.5
20260502222312 49 286 4.3 8.7 0.00 0.01 0.00 48 1015.5
20260502222001 49 290 3.5 8.7 0.00 0.01 0.00 47 1015.6
20260502221811 49 292 3.5 8.7 0.00 0.01 0.00 48 1015.5
20260502221501 49 286 4.3 8.7 0.00 0.01 0.00 47 1015.5
20260502221311 49 286 4.3 7.8 0.00 0.01 0.00 48 1015.5
20260502221023 49 292 4.3 7.8 0.00 0.01 0.00 48 1015.6
20260502220811 49 288 4.3 8.7 0.00 0.01 0.00 48 1015.5
20260502220501 48 302 5.2 8.7 0.00 0.01 0.00 47 1015.6
20260502220311 48 306 5.2 8.7 0.00 0.01 0.00 48 1015.5
20260502220001 48 302 6.1 11.3 0.00 0.01 0.00 46 1015.6
20260502215811 49 304 5.2 11.3 0.00 0.01 0.00 45 1015.6
20260502215523 49 303 5.2 11.3 0.00 0.01 0.00 45 1015.7
20260502215311 49 299 5.2 11.3 0.00 0.01 0.00 46 1015.6
20260502215001 49 300 5.2 9.6 0.00 0.01 0.00 45 1015.5
20260502214811 50 298 5.2 9.6 0.00 0.01 0.00 46 1015.6
20260502214501 50 282 5.2 9.6 0.00 0.01 0.00 46 1015.6
20260502214311 50 278 5.2 9.6 0.00 0.01 0.00 47 1015.6
20260502214001 50 273 6.1 9.6 0.00 0.01 0.00 47 1015.7
20260502213811 50 269 6.1 9.6 0.00 0.01 0.00 49 1015.6
20260502213501 50 274 6.1 9.6 0.00 0.01 0.00 50 1015.6
20260502213311 50 276 6.1 11.3 0.00 0.01 0.00 47 1015.5
20260502213002 50 278 6.1 11.3 0.00 0.01 0.00 46 1015.5
20260502212811 50 279 5.2 11.3 0.00 0.01 0.00 46 1015.5
20260502212501 50 278 5.2 11.3 0.00 0.01 0.00 47 1015.6
20260502212311 50 276 5.2 12.2 0.00 0.01 0.00 46 1015.5
20260502212001 50 278 5.2 12.2 0.00 0.01 0.00 49 1015.6
20260502211811 50 282 5.2 12.2 0.00 0.01 0.00 54 1015.6
20260502211523 49 287 5.2 12.2 0.00 0.01 0.00 53 1015.6
20260502211311 49 292 4.3 9.6 0.00 0.01 0.00 48 1015.6
20260502211001 49 290 4.3 9.6 0.00 0.01 0.00 46 1015.6
20260502210811 49 286 5.2 10.4 0.00 0.01 0.00 47 1015.6
20260502210501 49 288 6.1 10.4 0.00 0.01 0.00 47 1015.6
20260502210310 49 288 6.1 10.4 0.00 0.01 0.00 47 1015.6
20260502210023 49 292 5.2 10.4 0.00 0.01 0.00 47 1015.6
20260502205810 48 298 5.2 10.4 0.00 0.01 0.00 46 1015.5
20260502205501 49 303 5.2 10.4 0.00 0.01 0.00 45 1015.6
20260502205310 49 305 6.1 10.4 0.00 0.01 0.00 45 1015.6
20260502205002 49 310 5.2 10.4 0.00 0.01 0.00 45 1015.6
20260502204810 49 305 5.2 10.4 0.00 0.01 0.00 45 1015.6
20260502204502 49 288 5.2 11.3 0.00 0.01 0.00 46 1015.5
20260502204310 49 280 5.2 11.3 0.00 0.01 0.00 45 1015.6
20260502204022 49 275 5.2 11.3 0.00 0.01 0.00 46 1015.5
20260502203810 49 284 6.1 11.3 0.00 0.01 0.00 46 1015.6
20260502203501 49 302 6.1 13.9 0.00 0.01 0.00 46 1015.7
20260502203310 49 311 5.2 13.9 0.00 0.01 0.00 46 1015.6
20260502203002 49 311 5.2 13.9 0.00 0.01 0.00 45 1015.6
20260502202810 49 309 5.2 13.9 0.00 0.01 0.00 43 1015.7
20260502202501 49 310 5.2 9.6 0.00 0.01 0.00 45 1015.7
20260502202310 49 310 5.2 10.4 0.00 0.01 0.00 46 1015.8
20260502202001 49 313 6.1 10.4 0.00 0.01 0.00 44 1015.8
20260502201810 49 308 6.1 10.4 0.00 0.01 0.00 43 1015.9
20260502201523 50 299 6.1 10.4 0.00 0.01 0.00 44 1015.8
20260502201310 50 296 5.2 10.4 0.00 0.01 0.00 46 1015.9
20260502201002 50 286 5.2 10.4 0.00 0.01 0.00 45 1016.0
20260502200810 50 284 5.2 10.4 0.00 0.01 0.00 45 1016.0
20260502200501 50 280 6.1 11.3 0.00 0.01 0.00 44 1016.0
20260502200310 50 279 7.0 11.3 0.00 0.01 0.00 44 1016.1
20260502200022 50 277 7.0 11.3 0.00 0.01 0.00 44 1016.1
20260502195810 50 277 6.1 11.3 0.00 0.01 0.00 44 1016.1
20260502195522 50 277 6.1 10.4 0.00 0.01 0.00 44 1016.0
20260502195309 50 276 6.1 10.4 0.00 0.01 0.00 44 1016.1
20260502195002 50 280 6.1 10.4 0.00 0.01 0.00 44 1016.1
20260502194809 50 282 6.1 11.3 0.00 0.01 0.00 44 1016.1
20260502194522 50 285 6.1 11.3 0.00 0.01 0.00 45 1016.1
20260502194309 50 288 5.2 11.3 0.00 0.01 0.00 44 1016.2